FW0208 Weather Reports


Display with metric or nautical units.
time (UTC)temp
F
wind
direction
speed
MPH
gust
MPH
rain 1hr
in
rain 24hr
in
rain mn
in
humidity
%
barometer
mb
20260507074551 55 50 3.0 6.0 0.00 0.02 0.00 73 1014.4
20260507073046 53 59 3.0 8.0 0.00 0.02 0.00 77 1014.2
20260507071601 52 51 4.0 8.0 0.00 0.02 0.00 80 1014.2
20260507070041 51 42 2.0 6.0 0.00 0.02 0.00 81 1014.2
20260507064538 51 53 3.0 5.0 0.00 0.02 0.00 82 1014.1
20260507063042 50 36 2.0 9.0 0.00 0.02 0.00 82 1014.1
20260507061532 50 42 4.0 9.0 0.00 0.02 0.00 84 1013.9
20260507060035 49 34 3.0 9.0 0.00 0.02 0.00 85 1013.9
20260507054526 49 5 2.0 4.0 0.00 0.02 0.00 86 1013.8
20260507053025 48 337 0.0 5.0 0.00 0.02 0.00 85 1013.7
20260507051529 48 47 3.0 9.0 0.00 0.02 0.00 85 1013.5
20260507050021 48 26 3.0 6.0 0.00 0.02 0.00 85 1013.3
20260507044514 48 40 3.0 6.0 0.00 0.02 0.00 85 1013.2
20260507043013 48 58 3.0 8.0 0.00 0.02 0.00 85 1013.0
20260507041511 48 43 2.0 6.0 0.00 0.02 0.00 85 1013.0
20260507040009 48 24 1.0 6.0 0.00 0.02 0.00 85 1012.8
20260507034514 48 30 1.0 4.0 0.00 0.02 0.00 85 1012.7
20260507033013 48 49 3.0 7.0 0.00 0.02 0.00 85 1012.6
20260507031559 48 44 2.0 6.0 0.00 0.02 0.00 86 1012.5
20260507030057 47 51 0.0 2.0 0.00 0.02 0.00 85 1012.4
20260507024602 47 71 0.0 0.0 0.00 0.02 0.00 85 1012.4
20260507023156 47 71 0.0 0.0 0.00 0.02 0.00 85 1012.3
20260507021551 47 73 0.0 1.0 0.00 0.02 0.00 85 1012.3
20260507020051 47 51 0.0 0.0 0.00 0.02 0.00 84 1012.1
20260507014559 47 51 0.0 0.0 0.00 0.02 0.00 84 1012.0
20260507013050 47 51 0.0 0.0 0.00 0.02 0.00 84 1011.9
20260507011548 47 51 0.0 0.0 0.00 0.02 0.00 83 1011.9
20260507010049 47 51 0.0 0.0 0.00 0.02 0.00 83 1012.0
20260507004547 47 51 0.0 0.0 0.00 0.02 0.00 83 1011.8
20260507003044 47 51 0.0 0.0 0.00 0.02 0.00 83 1011.8
20260507001549 48 51 0.0 0.0 0.00 0.02 0.00 82 1011.8
20260507000041 48 51 0.0 0.0 0.00 0.02 0.00 82 1011.8
20260506234539 48 51 0.0 2.0 0.00 0.02 0.00 81 1011.7
20260506233039 48 52 0.0 0.0 0.00 0.02 0.00 81 1011.7
20260506231538 48 52 0.0 0.0 0.00 0.02 0.00 81 1011.7
20260506230037 48 52 0.0 0.0 0.00 0.02 0.00 79 1011.5
20260506224535 48 52 0.0 1.0 0.00 0.02 0.00 79 1011.4
20260506223033 49 52 0.0 0.0 0.00 0.02 0.00 78 1011.3
20260506221530 49 52 1.0 3.0 0.00 0.02 0.00 78 1011.3
20260506220036 49 49 0.0 0.0 0.00 0.02 0.02 77 1011.3
20260506214527 49 49 0.0 0.0 0.00 0.02 0.02 75 1011.2
20260506213030 49 49 0.0 0.0 0.00 0.02 0.02 74 1011.1
20260506211526 50 50 0.0 0.0 0.00 0.02 0.02 73 1011.0
20260506210024 50 49 0.0 0.0 0.00 0.02 0.02 72 1010.9
20260506204522 51 57 0.0 0.0 0.00 0.02 0.02 70 1010.8
20260506203021 51 57 0.0 3.0 0.00 0.02 0.02 70 1010.6
20260506201519 52 58 1.0 4.0 0.00 0.02 0.02 69 1010.5
20260506200021 53 65 1.0 3.0 0.00 0.02 0.02 68 1010.6
20260506194515 53 59 1.0 4.0 0.00 0.02 0.02 67 1010.4
20260506193011 53 37 4.0 6.0 0.00 0.02 0.02 66 1010.3
20260506191510 54 47 3.0 8.0 0.00 0.02 0.02 66 1010.2
20260506190012 55 59 4.0 10.0 0.00 0.02 0.02 65 1010.0
20260506184506 55 38 3.0 8.0 0.00 0.02 0.02 65 1009.8
20260506183006 56 74 3.0 7.0 0.00 0.02 0.02 64 1009.6
20260506181503 56 52 4.0 7.0 0.00 0.02 0.02 64 1009.3
20260506180001 56 59 4.0 9.0 0.00 0.02 0.02 64 1009.1
20260506174559 56 26 3.0 9.0 0.00 0.02 0.02 64 1009.0
20260506173134 57 64 7.0 14.0 0.00 0.02 0.02 67 1008.7
20260506171557 58 327 9.0 14.0 0.00 0.02 0.02 70 1008.6
20260506170055 58 338 8.0 15.0 0.00 0.02 0.02 70 1008.5
20260506164555 58 324 9.0 14.0 0.00 0.02 0.02 70 1008.4
20260506163059 57 325 5.0 11.0 0.00 0.02 0.02 70 1008.4
20260506161557 58 327 4.0 13.0 0.00 0.02 0.02 69 1008.3
20260506160053 58 332 5.0 11.0 0.00 0.02 0.02 70 1008.4
20260506154553 57 333 5.0 10.0 0.00 0.02 0.02 71 1008.4
20260506153051 58 345 7.0 12.0 0.00 0.02 0.02 69 1008.4
20260506151551 59 339 6.0 12.0 0.00 0.02 0.02 66 1008.4
20260506150150 62 348 8.0 15.0 0.00 0.02 0.02 62 1008.4
20260506144602 64 307 9.0 15.0 0.00 0.02 0.02 62 1008.3
20260506143046 63 338 10.0 15.0 0.00 0.02 0.02 63 1008.3
20260506141543 62 355 7.0 15.0 0.00 0.02 0.02 66 1008.1
20260506140040 61 343 11.0 15.0 0.00 0.02 0.02 66 1008.3
20260506134538 60 315 9.0 15.0 0.00 0.02 0.02 69 1008.3
20260506133041 60 325 9.0 15.0 0.00 0.02 0.02 68 1008.4
20260506131534 61 349 9.0 16.0 0.00 0.02 0.02 69 1008.3
20260506130034 60 329 9.0 15.0 0.00 0.02 0.02 70 1008.2
20260506124528 59 307 8.0 16.0 0.00 0.02 0.02 70 1008.2
20260506123028 60 325 8.0 14.0 0.00 0.02 0.02 70 1008.1
20260506121527 58 340 7.0 15.0 0.00 0.02 0.02 73 1008.1
20260506120028 58 345 7.0 13.0 0.00 0.02 0.02 73 1008.1
20260506114521 58 327 8.0 15.0 0.00 0.02 0.02 73 1008.1
20260506113022 58 313 6.0 13.0 0.00 0.02 0.02 73 1008.0
20260506111520 58 327 6.0 13.0 0.00 0.02 0.02 75 1008.1
20260506110020 58 341 8.0 13.0 0.00 0.02 0.02 76 1008.0
20260506104517 57 326 4.0 13.0 0.00 0.02 0.02 76 1008.1
20260506103016 57 360 5.0 13.0 0.00 0.02 0.02 76 1008.2
20260506101514 56 329 7.0 13.0 0.00 0.02 0.02 76 1008.1
20260506100012 55 317 7.0 14.0 0.00 0.02 0.02 80 1008.1
20260506094506 55 342 7.0 13.0 0.00 0.02 0.02 82 1008.1
20260506093002 53 322 7.0 14.0 0.00 0.02 0.02 87 1008.0
20260506091559 52 355 6.0 15.0 0.00 0.02 0.02 89 1008.0
20260506090059 51 342 5.0 12.0 0.00 0.02 0.02 90 1007.9
20260506084559 51 328 7.0 12.0 0.01 0.02 0.02 90 1007.9
20260506083058 51 313 5.0 11.0 0.02 0.02 0.02 91 1007.7
20260506081550 50 342 4.0 10.0 0.02 0.02 0.02 91 1007.8
20260506080104 50 329 4.0 9.0 0.02 0.02 0.02 90 1007.7